Regional Weather Roundup
Issued by NWS

Home | Current Version | Previous Version | Graphics & Text | Print | Product List | Glossary On
Versions: 1 2 3 4 5 6 7 8 9 10 11 12 13 14 15 16 17 18 19 20 21 22 23 24 25 26 27 28 29 30 31 32 33 34 35 36 37 38 39 40 41 42 43 44 45 46 47 48 49 50
000
ASUS43 KDTX 260310
RWRMI
MICHIGAN HOURLY REGIONAL WEATHER ROUNDUP
NATIONAL WEATHER SERVICE DETROIT/PONTIAC MI
1100 PM EDT MON MAY 25 2015

NOTE: "FAIR" INDICATES FEW OR NO CLOUDS BELOW 12,000 FEET WITH NO
SIGNIFICANT WEATHER AND/OR OBSTRUCTION TO VISIBILITY.

MIZ047>049-052>055-059>063-066>070-074>076-081>083-260400-
SOUTHEAST LOWER MICHIGAN

CITY           SKY/WX    TMP DP  RH WIND       PRES   REMARKS
ADRIAN         PTCLDY    72  61  68 SW12      30.02R
ALMA           CLOUDY    66  62  85 S6        29.95R
ANN ARBOR      PTCLDY    73  62  68 SW8       30.01R
BAD AXE        MOCLDY    69  60  73 SW9       29.96R
CARO           MOCLDY    67  61  80 SW5       29.96R
DETROIT CITY   PTCLDY    75  61  61 SW12      29.99R
DETROIT        MOCLDY    76  61  59 S14       30.01R
FLINT          PTCLDY    67  61  81 S5        29.98R
GROSSE ILE     PTCLDY    73  63  68 S8        30.00R
HILLSDALE      MOCLDY    72  61  69 S6        30.02R
HOWELL         MOCLDY    68  63  84 CALM      30.00R

CITY           SKY/WX    TMP DP  RH WIND       PRES   REMARKS
JACKSON        MOCLDY    68  60  75 S6        30.00R
LAMBERTVILLE   PTCLDY    73  61  64 SW10      30.03R
LANSING        CLOUDY    67  59  75 S6        29.98R
LAPEER         FAIR      64  63  94 S3        29.99R
MASON          CLOUDY    64  61  88 CALM      29.99R
MONROE         PTCLDY    73  61  64 SW9       30.00R
MT. CLEMENS    MOCLDY    76  62  63 W6        29.97R
PONTIAC        MOCLDY    71  64  78 SW3       30.00R
PORT HOPE        N/A    N/A N/A N/A W7        29.92R
PORT HURON     PTCLDY    70  64  83 SW3       29.99R
TRI CITIES     CLOUDY    70  61  73 SW8       29.95R
MIDLAND        FAIR      68  60  75 S6        29.93R
TROY           PTCLDY    76  61  60 W3        30.01R
SAGINAW HB     MOCLDY    68  61  77 S7        29.95R
$$
MIZ043>046-050>051-056>058-064>065-071>073-077>080-260400-
SOUTHWEST LOWER MICHIGAN

CITY           SKY/WX    TMP DP  RH WIND       PRES   REMARKS
BATTLE CREEK   CLOUDY    67  60  78 S7        29.99R
BENTON HARBOR  MOCLDY    64  58  80 CALM      29.96R
BIG RAPIDS     MOCLDY    66  59  77 SE7       29.92R
COLDWATER      MOCLDY    70  60  71 S3        30.01R
FREMONT        FAIR      64  59  84 S5        29.93R
HOLLAND        MOCLDY    66  58  75 S6        29.96R
GRAND RAPIDS   CLOUDY    66  59  78 S8        29.97R
IONIA          FAIR      68  59  73 SW6       29.97R
KALAMAZOO      CLOUDY    68  60  75 S3        29.99R
LUDINGTON      CLEAR     68  60  74 SW17G26   29.89R
MARSHALL       MOCLDY    70  59  68 S5        29.99R
MOUNT PLEASANT CLOUDY    68  60  75 S5        29.93R
MUSKEGON       PTCLDY    65  54  67 SW12      29.93R
SOUTH HAVEN    MOCLDY    62  58  84 CALM      29.97R
$$
MIZ016>042-260400-
NORTHERN LOWER MICHIGAN

CITY           SKY/WX    TMP DP  RH WIND       PRES   REMARKS
ALPENA         MOCLDY    67  61  81 S5        29.86R
BEAVER ISLAND  CLEAR     63  57  81 SW13G21   29.80S
BELLAIRE       MOCLDY    69  60  74 CALM      29.85R
CADILLAC       PTCLDY    65  60  82 S8        29.91R
CHARLEVOIX     MOCLDY    69  61  76 S8        29.86R
FRANKFORT      PTCLDY    68  56  63 SW12G22   29.85R
GAYLORD        PTCLDY    67  62  84 SW13      29.87R
GRAYLING       PTCLDY    66  59  77 SW5       29.90R
HARBOR SPRINGS MOCLDY    63  58  85 SW3       29.83R
HOUGHTON LAKE  PTCLDY    66  60  81 SW9       29.90R
MANISTEE       CLEAR     66  57  72 SW7       29.88R
OSCODA         CLOUDY    69  61  75 SW12      29.89R
PELLSTON       PTCLDY    68  60  75 SW10      29.83R
ROGERS CITY    PTCLDY    66  63  89 SW8       29.85R
TRAVERSE CITY  PTCLDY    70  60  70 S3        29.83R
$$
MIZ007>008-015-260400-
EASTERN UPPER MICHIGAN

CITY           SKY/WX    TMP DP  RH WIND       PRES   REMARKS
KINROSS        CLOUDY    59  59 100 SW5       29.80R
MACKINAC ISLAN MOCLDY    56  55  96 W12       29.82R
NEWBERRY       PTCLDY    55  54  98 S10       29.78R
S. S. MARIE    CLOUDY    61  59  93 SW9       29.79R
MUNISING         N/A     57  55  93 CALM      29.76R
$$
MIZ004>006-011>014-085-260400-
CENTRAL UPPER MICHIGAN

CITY           SKY/WX    TMP DP  RH WIND       PRES   REMARKS
MANISTIQUE     CLEAR     46  44  95 S7        29.78S
ESCANABA       MOCLDY    57  54  88 S3        29.78R
MENOMINEE      PTCLDY    66  61  82 W5        29.80R
SAWYER-GWINN   CLEAR     62  59  91 SW6       29.78R
$$
MIZ001>003-009>011-084-260400-
WESTERN UPPER MICHIGAN

CITY           SKY/WX    TMP DP  RH WIND       PRES   REMARKS
IRON MOUNTAIN  CLOUDY    65  59  81 S6        29.78R
HOUGHTON       CLOUDY    54  53  97 W8        29.73R
COPPER HARBOR    N/A     42  41  96 CALM      29.71R
IRONWOOD       CLOUDY    55  55 100 S3        29.73R VSB 1/2
$$

ABBREVIATIONS USED IN REMARKS
   TC - TEMPERATURE IN CELSIUS
  WCI - WIND CHILL INDEX
   HX - HEAT INDEX
  VSB - VISIBILITY




USA.gov is the U.S. government's official web portal to all federal, state and local government web resources and services.